San Bernardino, CA

9:17 PM PST on December 12, 2019 (GMT -0800)
San Bernardino International

Weather History for KSBD - May, 2019

Change the Weather History Date:

Sunday, May 26, 2019

  Actual Average Record
Temperature  
Mean Temperature 56 °F -  
Max Temperature 59 °F 81 °F 91 °F (2014)
Min Temperature 52 °F 53 °F 51 °F (2011)
Degree Days  
Heating Degree Days 10    
Growing Degree Days 6 (Base 50)    
Moisture  
Dew Point 48 °F    
Average Humidity 74    
Maximum Humidity 85    
Minimum Humidity 59    
Precipitation  
Precipitation 0.18 in - - ()
Sea Level Pressure  
Sea Level Pressure 29.92 in    
Wind  
Wind Speed 5 mph (SW)    
Max Wind Speed 15 mph    
Max Gust Speed -    
Visibility 8 miles    
Events Rain    
Averages and records for this station are not official NWS values.
T = Trace of Precipitation, MM = Missing Value Source: NWS Daily Summary

Daily Weather History Graph

Daily Weather History Graph

Search for Another Location

Airport or City:

Astronomy

May. 26, 2019 Rise Set
Actual Time 5:40 AM PDT 7:51 PM PDT
Civil Twilight 5:12 AM PDT 8:19 PM PDT
Nautical Twilight 4:37 AM PDT 8:54 PM PDT
Astronomical Twilight 4:00 AM PDT 9:32 PM PDT
Moon 1:32 AM PDT (5/26) 12:36 PM PDT (5/26)
Length of Visible Light 15h 07m
Length of Day
14h 10m
Waning Gibbous, 49% of the Moon is Illuminated
May 26
Waning Gibbous
Jun 3
New
Jun 9
First Quarter
Jun 17
Full
Jun 25
Last Quarter

Hourly Weather History & Observations

Time (PDT) Temp. Dew Point Humidity Pressure Visibility Wind Dir Wind Speed Gust Speed Precip Events Conditions
12:00 AM 59.9 °F 49.3 °F 68% 29.88 in 10.0 mi WSW 4.6 mph - N/A   Overcast
12:20 AM 59.5 °F 49.1 °F 68% 29.89 in 10.0 mi WSW 5.8 mph - N/A   Overcast
12:40 AM 59.7 °F 49.3 °F 68% 29.88 in 10.0 mi WSW 4.6 mph - N/A   Overcast
1:00 AM 59.4 °F 49.3 °F 69% 29.88 in 10.0 mi WSW 6.9 mph - N/A   Overcast
1:20 AM 58.8 °F 49.3 °F 71% 29.88 in 10.0 mi WSW 5.8 mph - N/A   Overcast
1:40 AM 58.3 °F 49.3 °F 72% 29.87 in 10.0 mi WSW 9.2 mph - N/A   Overcast
2:00 AM 58.1 °F 49.3 °F 72% 29.87 in 10.0 mi West 10.4 mph - N/A   Overcast
2:20 AM 57.6 °F 49.5 °F 74% 29.87 in 10.0 mi West 8.1 mph - N/A   Overcast
2:40 AM 57.4 °F 50.0 °F 76% 29.87 in 10.0 mi WSW 6.9 mph - N/A   Overcast
3:00 AM 57.2 °F 50.0 °F 77% 29.87 in 10.0 mi West 9.2 mph - N/A   Overcast
3:20 AM 57.4 °F 49.5 °F 75% 29.87 in 10.0 mi WSW 5.8 mph - N/A   Overcast
3:40 AM 57.4 °F 49.3 °F 74% 29.86 in 10.0 mi WSW 4.6 mph - N/A   Overcast
4:00 AM 57.0 °F 49.5 °F 76% 29.87 in 5.0 mi SW 3.5 mph - N/A Rain Rain
4:20 AM 56.7 °F 50.0 °F 78% 29.87 in 7.0 mi SW 3.5 mph - N/A   Drizzle
4:40 AM 56.7 °F 49.5 °F 77% 29.87 in 10.0 mi SW 3.5 mph - N/A   Overcast
5:00 AM 56.7 °F 48.9 °F 75% 29.87 in 10.0 mi Calm Calm - N/A   Overcast
5:20 AM 56.7 °F 49.1 °F 76% 29.87 in 7.0 mi Calm Calm - N/A   Overcast
5:40 AM 56.1 °F 49.6 °F 79% 29.87 in 3.0 mi Calm Calm - N/A Rain Heavy Rain
5:41 AM 55.9 °F 49.8 °F 80% 29.87 in 3.0 mi Calm Calm - N/A Rain Heavy Rain
6:47 AM 55.4 °F 50.0 °F 82% 29.89 in 7.0 mi Calm Calm - N/A   Overcast
7:48 AM 55.4 °F 50.0 °F 82% 29.90 in 7.0 mi Calm Calm - N/A   Overcast
8:50 AM 57.2 °F 50.0 °F 77% 29.92 in 7.0 mi Calm Calm - N/A   Overcast
9:58 AM 57.2 °F 50.0 °F 77% 29.92 in 7.0 mi Calm Calm - N/A   Overcast
10:50 AM 59.0 °F 50.0 °F 72% 29.94 in 7.0 mi Calm Calm - N/A   Overcast
11:50 AM 57.2 °F 48.2 °F 72% 29.97 in 7.0 mi SW 15.0 mph - N/A   Overcast
12:50 PM 59.0 °F 46.4 °F 63% 29.97 in 7.0 mi SW 10.4 mph - N/A   Overcast
1:50 PM 59.0 °F 44.6 °F 59% 29.97 in 7.0 mi SW 8.1 mph - N/A   Overcast
2:50 PM 59.0 °F 44.6 °F 59% 29.97 in 7.0 mi WSW 10.4 mph - N/A   Overcast
3:50 PM 59.0 °F 44.6 °F 59% 29.97 in 7.0 mi SW 8.1 mph - N/A   Overcast
4:50 PM 59.0 °F 44.6 °F 59% 29.96 in 7.0 mi WSW 6.9 mph - N/A   Overcast
5:50 PM 57.2 °F 44.6 °F 63% 29.96 in 5.0 mi SW 5.8 mph - N/A   Haze
6:50 PM 55.4 °F 46.4 °F 72% 29.96 in 2.0 mi WSW 3.5 mph - N/A   Drizzle
7:16 PM 53.6 °F 48.2 °F 82% 29.96 in 3.0 mi Calm Calm - N/A   Drizzle
7:50 PM 55.4 °F 48.2 °F 77% 29.95 in 3.0 mi ESE 3.5 mph - N/A Rain Light Rain
8:50 PM 53.6 °F 48.2 °F 82% 29.96 in 3.0 mi ESE 3.5 mph - N/A Rain Light Rain
9:40 PM 53.8 °F 49.3 °F 85% 29.97 in 4.0 mi WSW 4.6 mph - 0.18 in Rain Rain
10:00 PM 53.8 °F 49.3 °F 85% 29.97 in 10.0 mi SW 9.2 mph - N/A Rain Light Rain
10:20 PM 53.6 °F 48.7 °F 84% 29.97 in 10.0 mi SW 5.8 mph - N/A   Overcast
10:40 PM 53.1 °F 48.0 °F 83% 29.98 in 10.0 mi WSW 12.7 mph - N/A   Overcast
11:00 PM 52.7 °F 47.3 °F 82% 29.98 in 10.0 mi WSW 8.1 mph - N/A   Scattered Clouds
11:20 PM 52.9 °F 47.3 °F 81% 29.97 in 10.0 mi SW 4.6 mph - N/A   Mostly Cloudy
11:40 PM 52.9 °F 47.3 °F 81% 29.97 in 10.0 mi Calm Calm - N/A   Light Drizzle